Tracking 19832 objects as of 26-Aug-2019
HD Live streaming from Space Station
objects crossing your sky now

COSMOS 2251 DEB

Track COSMOS 2251 DEB now!
10-day predictions


NORAD ID: 34142
Int'l Code: 1993-036LP
Perigee: 638.0 km
Apogee: 709.6 km
Inclination: 74.0 °
Period: 98.1 minutes
Semi major axis: 7044 km
RCS: 0.035 m2 (small)
Launch date: June 16, 1993
Source: Commonwealth of Independent States (former USSR) (CIS)
Launch site: PLESETSK MISSILE AND SPACE COMPLEX (PKMTR)

Note: This is SATELLITE DEBRIS
aabbcc
Your satellite tracking list
Your tracking list is empty




NASA's NSSDC Master Catalog

Two Line Element Set (TLE):
1 34142U 93036LP  19236.71978190 +.00000575 +00000-0 +10369-3 0  9997
2 34142 073.9924 237.2427 0050811 265.8576 209.4219 14.68255302560106
Source of the keplerian elements: AFSPC